sat.trackr.live / text

‹ back to catalog

STARLINK-30592

NORAD 58102 · 2023-161F

PAYLOAD ACTIVE UNKNOWN

§ Identity

Operator
Country
US
Launch date
2023-10-21
Launch site
AFWTR
Launch vehicle
Mass (kg)
RCS (m²)

Purposes: comms

External: N2YO · Heavens-Above · Gunter

§ Orbital elements

Epoch: 2026-09-20T10:24:55.059840Z

Period
93.85 min
Inclination
53.1623°
Eccentricity
0.0001338
Mean motion
15.34396683 rev/d
Perigee alt
461.8 km
Apogee alt
463.6 km
Semi-major
6,840.9 km
B*
-9.0980e-6
RAAN
337.7218°
Arg perigee
96.7373°
Mean anomaly
263.3782°
Rev number
16,428

§ Raw data

STARLINK-305921 58102U 23161F   26263.43397060 -.00000684  00000+0 -90980-5 0  99902 58102  53.1623 337.7218 0001338  96.7373 263.3782 15.34396683164289

JSON: /api/v1/satellites/58102 · /tle

For live sub-satellite position, see the globe view (requires WebGL).

§ Visibility from observer

Set your observer location to see the next 7 days of passes ≥ 10°. The values pass through the URL so the page stays shareable.

No JS? Fill the form by hand. The geolocation button needs JavaScript.